HULIANWANG DIGUI-115

基本信息
目录编号:
66954
目录名称:
HULIANWANG DIGUI-115
国际标识:
2025-287B
轨道中心:
EARTH
卫星名称:
HULIANWANG DIGUI-115
卫星全名:
HULIANWANG DIGUI-115
卫星状态:
在轨 (已飞行5 天)
发射日期:
2025-12-08 UTC
国别 :
中国 (PRC)
星等 :
--
轨道信息
数据来源 国际轨道数据 AOE轨道数据
星历时间 2025-12-13T06:04:40+0800
13小时前
查看轨道信息
2025-12-12T22:00:00+0800
21小时前
查看轨道信息
半长轴 7382.051km 7382.039km
偏心率 0.0008581 0.0008613
轨道倾角 86.497° 86.496°
近地点辐角 203.498° 203.313°
升交点赤经 346.093° 346.215°
平近点角 156.579° 299.230°
近地点 997.581km 997.545km
远地点 1010.251km 1010.263km
周期 105.202分钟 105.202分钟
每日圈数 13.687914 13.687946
详细信息
使用方式:
暂无
2D轨道图
3D轨道图
轨道高度分析图
轨道倾角分析图
轨道综合分析图
查看轨道综合分析图